[ hide orbit diagram ]
For accurate long-term ephemerides, please instead use our Horizons system.This orbit viewer was implemented using two-body methods, and hence should not be used for determining accurate long-term trajectories (over several years or decades) or planetary encounter circumstances.
Orbital Elements at Epoch 2459000.5 (2020-May-31.0) TDB
Reference: JPL 15 (heliocentric ecliptic J2000)
Element | Value | Uncertainty (1-sigma) | Units |
e | .1841519528943008 | 4.4936e-08 | |
a | 2.325844405198469 | 9.3025e-09 | au |
q | 1.897535615852887 | 1.0552e-07 | au |
i | 11.6850718220461 | 5.4602e-06 | deg |
node | 152.0112923149369 | 2.2084e-05 | deg |
peri | 141.6551451062289 | 2.6636e-05 | deg |
M | 347.8132483989409 | 1.2991e-05 | deg |
tp | 2459044.358610850773 (2020-Jul-13.85861085) | 4.6777e-05 | TDB |
period | 1295.595448495559 3.55 | 7.7728e-06 2.128e-08 | d yr |
n | .2778645142803109 | 1.667e-09 | deg/d |
Q | 2.75415319454405 | 1.1016e-08 | au |
|
| | Orbit Determination Parameters
Additional Information
|
[ show covariance matrix ]
Physical Parameter Table
Parameter |
Symbol |
Value |
Units |
Sigma |
Reference |
Notes |
absolute magnitude |
H |
17.0 |
|
n/a |
MPO427262 |
|
|
214579 (2006 QB48) Discovered 2006-Aug-21 by Spacewatch at Kitt Peak |
Reference: 20090509/Numbers.arc | Last Updated: 2009-05-11 |
|
[ show close-approach data ]
|